Tracking 19245 objects as of 15-Aug-2018
HD Live streaming from Space Station
objects crossing your sky now

COSMOS 1524

Track COSMOS 1524 now!
10-day predictions
COSMOS 1524 is classified as:


NORAD ID: 14613
Int'l Code: 1984-001C
Perigee: 1,418.4 km
Apogee: 1,469.1 km
Inclination: 74.0 °
Period: 114.6 minutes
Semi major axis: 7814 km
RCS: 0.6947 m2 (medium)
Launch date: January 5, 1984
Source: Commonwealth of Independent States (former USSR) (CIS)
Launch site: PLESETSK MISSILE AND SPACE COMPLEX (PKMTR)
aabbcc
Your satellite tracking list
Your tracking list is empty




NASA's NSSDC Master Catalog

Two Line Element Set (TLE):
1 14613U 84001C   18226.70114988  .00000006  00000-0  13446-3 0  9992
2 14613  74.0098 308.0613 0032386 335.7377 139.4414 12.56697333587790
Source of the keplerian elements: AFSPC